Météo par heure à Allaire

Ce jour, 14 Mai, Vendredi

Heure Température Précipitation Vent Pression Humidité
00:00 +4°C° 0 mm 4 m/s 753 mmHg 90%
01:00 +5°C° 0 mm 5 m/s 753 mmHg 90%
02:00 +6°C° 0 mm 5 m/s 753 mmHg 91%
03:00 +7°C° 0 mm 6 m/s 753 mmHg 91%
04:00 +7°C° 0 mm 6 m/s 753 mmHg 91%
05:00 +7°C° 0 mm 6 m/s 754 mmHg 90%
06:00 +7°C° 0 mm 6 m/s 754 mmHg 89%
07:00 +9°C° 0 mm 6 m/s 754 mmHg 83%
08:00 +10°C° 0 mm 6 m/s 754 mmHg 76%
09:00 +12°C° 0 mm 5 m/s 755 mmHg 70%
10:00 +13°C° 0 mm 5 m/s 755 mmHg 67%
11:00 +14°C° 0 mm 6 m/s 755 mmHg 65%
12:00 +14°C° 0 mm 6 m/s 755 mmHg 62%
13:00 +14°C° 0.1 mm 6 m/s 755 mmHg 63%
14:00 +14°C° 0.1 mm 7 m/s 755 mmHg 64%
15:00 +14°C° 0.1 mm 7 m/s 755 mmHg 65%
16:00 +12°C° 0 mm 7 m/s 754 mmHg 70%
17:00 +11°C° 0 mm 6 m/s 754 mmHg 74%
18:00 +10°C° 0 mm 5 m/s 754 mmHg 79%
19:00 +9°C° 0.4 mm 5 m/s 753 mmHg 84%
20:00 +8°C° 0.4 mm 4 m/s 753 mmHg 89%
21:00 +8°C° 0.4 mm 4 m/s 753 mmHg 93%
22:00 +8°C° 1.2 mm 4 m/s 752 mmHg 94%
23:00 +8°C° 1.2 mm 5 m/s 751 mmHg 95%

Demain, 15 Mai, Samedi

Heure Température Précipitation Vent Pression Humidité
00:00 +8°C° 1.2 mm 6 m/s 750 mmHg 96%
01:00 +9°C° 0.1 mm 7 m/s 749 mmHg 95%
02:00 +10°C° 0.1 mm 7 m/s 749 mmHg 94%
03:00 +10°C° 0.1 mm 7 m/s 748 mmHg 93%
04:00 +10°C° 0 mm 7 m/s 749 mmHg 93%
05:00 +10°C° 0 mm 6 m/s 749 mmHg 92%
06:00 +9°C° 0 mm 5 m/s 749 mmHg 92%
07:00 +10°C° 0.1 mm 6 m/s 749 mmHg 86%
08:00 +11°C° 0.1 mm 6 m/s 750 mmHg 80%
09:00 +12°C° 0.1 mm 7 m/s 750 mmHg 74%
10:00 +14°C° 0.1 mm 7 m/s 750 mmHg 71%
11:00 +13°C° 0.1 mm 8 m/s 750 mmHg 68%
12:00 +15°C° 0.1 mm 8 m/s 750 mmHg 64%
13:00 +15°C° 0.1 mm 8 m/s 750 mmHg 63%
14:00 +15°C° 0.1 mm 8 m/s 750 mmHg 62%
15:00 +16°C° 0.1 mm 9 m/s 750 mmHg 61%
16:00 +15°C° 0 mm 8 m/s 750 mmHg 66%
17:00 +14°C° 0 mm 7 m/s 750 mmHg 71%
18:00 +14°C° 0 mm 6 m/s 750 mmHg 76%
19:00 +11°C° 0.1 mm 6 m/s 750 mmHg 82%
20:00 +10°C° 0.1 mm 5 m/s 750 mmHg 87%
21:00 +9°C° 0.1 mm 5 m/s 751 mmHg 93%
22:00 +9°C° 0.1 mm 5 m/s 750 mmHg 93%
23:00 +9°C° 0.1 mm 5 m/s 750 mmHg 94%

Après-demain, 16 Mai, Dimanche

Heure Température Précipitation Vent Pression Humidité
00:00 +9°C° 0.1 mm 5 m/s 750 mmHg 94%
01:00 +8°C° 0 mm 5 m/s 750 mmHg 94%
02:00 +8°C° 0 mm 5 m/s 750 mmHg 94%
03:00 +8°C° 0 mm 5 m/s 750 mmHg 94%
04:00 +8°C° 0 mm 5 m/s 750 mmHg 93%
05:00 +9°C° 0 mm 5 m/s 750 mmHg 91%
06:00 +9°C° 0 mm 6 m/s 750 mmHg 90%
07:00 +11°C° 0.1 mm 7 m/s 750 mmHg 85%
08:00 +12°C° 0.1 mm 8 m/s 750 mmHg 80%
09:00 +13°C° 0.1 mm 9 m/s 750 mmHg 74%
10:00 +13°C° 0.3 mm 9 m/s 750 mmHg 73%
11:00 +13°C° 0.3 mm 10 m/s 750 mmHg 72%
12:00 +14°C° 0.3 mm 10 m/s 750 mmHg 71%
13:00 +14°C° 0.3 mm 10 m/s 750 mmHg 71%
14:00 +14°C° 0.3 mm 10 m/s 750 mmHg 71%
15:00 +14°C° 0.3 mm 10 m/s 750 mmHg 72%
16:00 +13°C° 0.2 mm 10 m/s 750 mmHg 75%
17:00 +12°C° 0.2 mm 10 m/s 750 mmHg 78%
18:00 +11°C° 0.2 mm 9 m/s 751 mmHg 82%
19:00 +11°C° 0 mm 9 m/s 751 mmHg 84%
20:00 +10°C° 0 mm 8 m/s 751 mmHg 86%
21:00 +9°C° 0 mm 8 m/s 752 mmHg 88%
22:00 +9°C° 0.1 mm 8 m/s 752 mmHg 87%
23:00 +9°C° 0.1 mm 8 m/s 752 mmHg 87%

17 Mai, Lundi

Heure Température Précipitation Vent Pression Humidité
00:00 +9°C° 0.1 mm 8 m/s 752 mmHg 86%
01:00 +9°C° 0.1 mm 8 m/s 752 mmHg 86%
02:00 +9°C° 0.1 mm 8 m/s 752 mmHg 85%
03:00 +9°C° 0.1 mm 8 m/s 752 mmHg 84%
04:00 +10°C° 0.1 mm 8 m/s 752 mmHg 82%
05:00 +10°C° 0.1 mm 8 m/s 752 mmHg 80%
06:00 +10°C° 0.1 mm 8 m/s 752 mmHg 78%
07:00 +11°C° 0.1 mm 8 m/s 753 mmHg 76%
08:00 +11°C° 0.1 mm 8 m/s 753 mmHg 75%
09:00 +12°C° 0.1 mm 9 m/s 753 mmHg 73%
10:00 +12°C° 0.4 mm 9 m/s 753 mmHg 74%
11:00 +12°C° 0.4 mm 9 m/s 754 mmHg 76%
12:00 +13°C° 0.4 mm 9 m/s 754 mmHg 77%
13:00 +13°C° 0.5 mm 9 m/s 754 mmHg 78%
14:00 +13°C° 0.5 mm 8 m/s 755 mmHg 78%
15:00 +13°C° 0.5 mm 8 m/s 755 mmHg 79%
16:00 +12°C° 0.4 mm 8 m/s 756 mmHg 79%
17:00 +12°C° 0.4 mm 7 m/s 756 mmHg 79%
18:00 +12°C° 0.4 mm 7 m/s 757 mmHg 79%
19:00 +10°C° 0 mm 6 m/s 757 mmHg 82%
20:00 +9°C° 0 mm 5 m/s 758 mmHg 84%
21:00 +7°C° 0 mm 5 m/s 759 mmHg 87%
22:00 +7°C° 0 mm 4 m/s 759 mmHg 89%
23:00 +7°C° 0 mm 4 m/s 759 mmHg 91%

18 Mai, Mardi

Heure Température Précipitation Vent Pression Humidité
00:00 +7°C° 0 mm 4 m/s 760 mmHg 93%
01:00 +7°C° 0 mm 4 m/s 760 mmHg 93%
02:00 +7°C° 0 mm 4 m/s 760 mmHg 92%
03:00 +7°C° 0 mm 4 m/s 760 mmHg 92%
04:00 +8°C° 0 mm 5 m/s 759 mmHg 91%
05:00 +9°C° 0 mm 6 m/s 759 mmHg 90%
06:00 +10°C° 0 mm 6 m/s 759 mmHg 89%
07:00 +11°C° 0.3 mm 7 m/s 759 mmHg 86%
08:00 +12°C° 0.3 mm 8 m/s 759 mmHg 84%
09:00 +12°C° 0.3 mm 9 m/s 759 mmHg 81%
10:00 +12°C° 0.2 mm 9 m/s 759 mmHg 82%
11:00 +11°C° 0.2 mm 8 m/s 759 mmHg 82%
12:00 +11°C° 0.2 mm 8 m/s 759 mmHg 83%
13:00 +11°C° 0.2 mm 8 m/s 759 mmHg 84%
14:00 +11°C° 0.2 mm 7 m/s 759 mmHg 86%
15:00 +11°C° 0.2 mm 7 m/s 759 mmHg 87%
16:00 +11°C° 0.2 mm 7 m/s 759 mmHg 88%
17:00 +11°C° 0.2 mm 6 m/s 759 mmHg 88%
18:00 +10°C° 0.2 mm 6 m/s 759 mmHg 89%
19:00 +10°C° 0.1 mm 5 m/s 759 mmHg 91%
20:00 +10°C° 0.1 mm 4 m/s 759 mmHg 92%
21:00 +9°C° 0.1 mm 3 m/s 759 mmHg 94%
22:00 +9°C° 0.1 mm 3 m/s 759 mmHg 94%
23:00 +9°C° 0.1 mm 3 m/s 759 mmHg 94%

19 Mai, Mercredi

Heure Température Précipitation Vent Pression Humidité
00:00 +9°C° 0.1 mm 3 m/s 759 mmHg 95%
01:00 +10°C° 0.7 mm 3 m/s 758 mmHg 95%
02:00 +10°C° 0.7 mm 2 m/s 758 mmHg 96%
03:00 +10°C° 0.7 mm 2 m/s 758 mmHg 97%
04:00 +10°C° 0.7 mm 2 m/s 758 mmHg 97%
05:00 +10°C° 0.7 mm 2 m/s 758 mmHg 97%
06:00 +10°C° 0.7 mm 2 m/s 758 mmHg 97%
07:00 +10°C° 0.2 mm 2 m/s 757 mmHg 96%
08:00 +10°C° 0.2 mm 2 m/s 757 mmHg 94%
09:00 +12°C° 0.2 mm 2 m/s 757 mmHg 92%
10:00 +13°C° 0 mm 2 m/s 758 mmHg 86%
11:00 +14°C° 0 mm 2 m/s 758 mmHg 81%
12:00 +15°C° 0 mm 1 m/s 758 mmHg 75%
13:00 +15°C° 0.1 mm 2 m/s 758 mmHg 72%
14:00 +16°C° 0.1 mm 3 m/s 758 mmHg 69%
15:00 +17°C° 0.1 mm 3 m/s 758 mmHg 66%
16:00 +15°C° 0.3 mm 4 m/s 758 mmHg 71%
17:00 +15°C° 0.3 mm 4 m/s 759 mmHg 76%
18:00 +14°C° 0.3 mm 4 m/s 759 mmHg 81%
19:00 +12°C° 0 mm 3 m/s 760 mmHg 83%
20:00 +10°C° 0 mm 3 m/s 760 mmHg 86%
21:00 +8°C° 0 mm 2 m/s 761 mmHg 88%
22:00 +7°C° 0 mm 2 m/s 761 mmHg 89%
23:00 +7°C° 0 mm 2 m/s 761 mmHg 90%
Voir plus

Nous avons besoin de votre consentement

Meteoprog et ses fournisseurs de services peuvent stocker et accéder à des données personnelles telles que des cookies, des identifiants d'appareils ou d'autres technologies similaires sur votre appareil et traiter ces données pour personnaliser le contenu et les publicités, ainsi que pour fournir des fonctionnalités de médias sociaux et analyser le trafic.

  • Stocker et/ou accéder à des informations sur votre appareil

    Des cookies, des identifiants d'appareils ou d'autres informations peuvent être stockés ou accessibles sur votre appareil aux fins indiquées ci-dessus.

  • Annonces et contenus personnalisés, mesure des annonces et des contenus, connaissance de l'audience et développement de produits

    Les annonces et le contenu peuvent être personnalisés en fonction d'un profil. D'autres données peuvent être ajoutées pour mieux personnaliser les annonces et le contenu. Les performances des publicités et du contenu peuvent être mesurées. Il est possible d'obtenir des informations sur le public qui a vu les publicités et le contenu. Ces données peuvent être utilisées pour développer ou améliorer l'expérience de l'utilisateur, les systèmes et les logiciels.

En cliquant sur "J'accepte", vous autorisez l'utilisation de cookies, des identifiants d'appareils, des balises web ou d'autres technologies similaires. Vos paramètres peuvent être modifiés dans le navigateur de votre appareil.

Dans certains cas, des intérêts légitimes peuvent être invoqués plutôt qu'un consentement. Vous pouvez en savoir plus à ce sujet dans notre Politique de confidentialité et de cookies.